STARLINK-3658, 52107

Orbit data source: Space-Track

STARLINK-3658, 52107 is a payload satellite owned by SpaceX/Seattle (US) in LEO that was launched on Sat, 19 Mar 2022 UTC via an FALCON 9 launch vehicle from the Air Force Eastern Test Range (AFETR). Payload-class satellites include a variety of spacecraft equipped with specific instruments for various scientific and technological missions. These include communications satellites like Starlink; space stations such as the ISS; scientific satellites like the Hubble; Earth observation satellites from companies like Planet Labs, Umbra, and HawkEye 360; GPS; miniature CubeSats for education and research; and military/defense satellites.

Loading next visibility...
Identifier
52107, 2022-029V
Orbit
LEO
Country
Flag of USUS
Related business
Manufacturer
SpaceX/Seattle
Mission
Operational Commercial Communications
Bus & Motor
STARLINK, Unknown motor
Mass
297 kg wet, ~275 kg dry
Launch date (UTC)
2022-03-19 (4 years ago)
Launch vehicle
FALCON 9
Launch site
Air Force Eastern Test Range (AFETR)
Object type
Payload
Rocket body
Debris
Shape & HBR
Box + 1 Pan, 10.1 m
Radar Cross Section
13.562 m², Large (>1 m²)

Expand to show TLE details & history
Last TLE update: 2 days ago

TLE from 2 days ago
0 STARLINK-3658
1 52107U 22029V   26171.16549473  .00058999  00000-0  36476-2 0  9994
2 52107  53.1600 338.9680 0001324  96.2123 263.9019 15.09304044236250
Epoch: 2026-06-20T03:58Z
TLE epoch observation values (Epoch: 2026-06-20T03:58:18.744Z)
Latitude
-0.00007°
Longitude
11.00582°
Altitude
539.314 km
Speed
7.594 km/s
True Right ascension
22h 35m 52s
True Declination
0° 00' 00"
Sunlit
Object was in daylight at epoch
Visualization orbit readout
Latitude
Unknown
Longitude
Unknown
Altitude
Unknown
Speed
Unknown
Apparent Right ascension
Unknown
Apparent Declination
Unknown
Sunlit
N/A
Visualization observer readout
Local Sidereal Time
00:25:03
Azimuth
Unknown
Elevation
Unknown
Doppler factor
Unknown
Orbital elements
Apogee altitude
539.495 km
Perigee altitude
537.664 km
Semi-major axis
6,916.717 km
Eccentricity
0.00013
Inclination
53.16°
RAAN
338.968°
Arg. of periapsis
96.2123°
True anomaly
263.88681°
Mean anomaly
263.9019°
Eccentric anomaly
263.89436°
Mean motion
3.77306 °/min
Orbital period
95.41 mins
BSTAR
0.0036476
Loading maneuver chart data...
Computing Atmospheric mass density...
Loading historical data...
Loading historical data...
Loading historical data...
Loading historical data...
Loading historical data...
Loading historical data...
Loading historical data...

Documentation

Showing up to 5 results
|